DECAYED

STARLINK-5404, 54769 (Decayed)

Orbit data source: Space-Track

STARLINK-5404, 54769 was a payload satellite owned by SpaceX/Seattle (US) in LEO that was launched on Sat, 17 Dec 2022 UTC via an FALCON 9 launch vehicle from the Air Force Eastern Test Range (AFETR). Payload-class satellites include a variety of spacecraft equipped with specific instruments for various scientific and technological missions. These include communications satellites like Starlink; space stations such as the ISS; scientific satellites like the Hubble; Earth observation satellites from companies like Planet Labs, Umbra, and HawkEye 360; GPS; miniature CubeSats for education and research; and military/defense satellites.

Not visible in the next 10 days
Identifier
54769, 2022-175M
Orbit
Decayed
Country
Flag of USUS
Related business
Manufacturer
SpaceX/Seattle
Mission
Decayed Commercial Communications
Bus & Motor
STARLINK, Unknown motor
Mass
305 kg wet, ~290 kg dry
Launch date (UTC)
2022-12-17 (4 years ago)
Launch vehicle
FALCON 9
Launch site
Air Force Eastern Test Range (AFETR)
Object type
Payload
Rocket body
Debris
Shape & HBR
Box + 1 Pan, 10.1 m
Radar Cross Section
13.562 m², Large (>1 m²)

Expand to show TLE details & history
Last TLE update: 1 year ago

TLE from 1 year ago
0 STARLINK-5404
1 54769U 22175M   25003.70123674  .10086354  12467-4  53224-3 0  9998
2 54769  53.1991 150.8373 0004162 314.2337  63.2999 16.42536902113173
Epoch: 2025-01-03T16:49Z
TLE epoch observation values (Epoch: 2025-01-03T16:49:46.854Z)
Latitude
13.99996°
Longitude
165.5175°
Altitude
158.038 km
Speed
7.815 km/s
True Right ascension
10h 46m 05s
True Declination
13° 54' 43"
Sunlit
Object was in full shadow at epoch
Visualization orbit readout
Latitude
Unknown
Longitude
Unknown
Altitude
Unknown
Speed
Unknown
Apparent Right ascension
Unknown
Apparent Declination
Unknown
Sunlit
N/A
Visualization observer readout
Local Sidereal Time
21:31:16
Azimuth
Unknown
Elevation
Unknown
Doppler factor
Unknown
Orbital elements
Apogee altitude
162.045 km
Perigee altitude
156.604 km
Semi-major axis
6,537.462 km
Eccentricity
0.00042
Inclination
53.1991°
RAAN
150.8373°
Arg. of periapsis
314.2337°
True anomaly
63.34252°
Mean anomaly
63.2999°
Eccentric anomaly
63.32121°
Mean motion
4.1061 °/min
Orbital period
87.67 mins
BSTAR
0.00053224
Loading maneuver chart data...
Computing Atmospheric mass density...
Loading historical data...
Loading historical data...
Loading historical data...
Loading historical data...
Loading historical data...
Loading historical data...
Loading historical data...

Documentation

Showing up to 5 results
|